Tracking 27422 objects as of 30-May-2023
HD Live streaming from Space Station
objects crossing your sky now

DMSP 5D-2 F13 DEB

Track DMSP 5D-2 F13 DEB now!
10-day predictions


NORAD ID: 40518
Int'l Code: 1995-015DE
Perigee: 627.7 km
Apogee: 737.3 km
Inclination: 98.7 °
Period: 98.3 minutes
Semi major axis: 7053 km
RCS: Unknown
Launch date: March 24, 1995
Source: United States (US)
Launch site: AIR FORCE WESTERN TEST RANGE (AFWTR)

Note: This is SATELLITE DEBRIS
Your satellite tracking list
Your tracking list is empty




NASA's NSSDC Master Catalog

Two Line Element Set (TLE):
1 40518U 95015DE  23150.16761605  .00015689  00000-0  27718-2 0  9997
2 40518  98.6786 279.6415 0077674 263.9008  95.3339 14.65534345435180
Source of the keplerian elements: AFSPC